Year,Month,Day,Hour,Minute,Value (Times are PST for temperature in C)
2016,09,15,00,00,12.10
2016,09,15,00,01,12.10
2016,09,15,00,02,12.10
2016,09,15,00,03,12.10
2016,09,15,00,04,12.10
2016,09,15,00,05,12.00
2016,09,15,00,06,12.00
2016,09,15,00,07,12.00
2016,09,15,00,08,12.00
2016,09,15,00,09,11.90
2016,09,15,00,10,11.90
2016,09,15,00,11,11.90
2016,09,15,00,12,11.90
2016,09,15,00,13,11.80
2016,09,15,00,14,11.80
2016,09,15,00,15,11.80
2016,09,15,00,16,11.80
2016,09,15,00,17,11.80
2016,09,15,00,18,11.80
2016,09,15,00,19,11.80
2016,09,15,00,20,11.80
2016,09,15,00,21,11.80
2016,09,15,00,22,11.80
2016,09,15,00,23,11.80
2016,09,15,00,24,11.80
2016,09,15,00,25,11.80
2016,09,15,00,26,11.80
2016,09,15,00,27,11.80
2016,09,15,00,28,11.80
2016,09,15,00,29,11.80
2016,09,15,00,30,11.80
2016,09,15,00,31,11.70
2016,09,15,00,32,11.70
2016,09,15,00,33,11.70
2016,09,15,00,34,11.70
2016,09,15,00,35,11.70
2016,09,15,00,36,11.70
2016,09,15,00,37,11.60
2016,09,15,00,38,11.60
2016,09,15,00,39,11.60
2016,09,15,00,40,11.60
2016,09,15,00,41,11.60
2016,09,15,00,42,11.60
2016,09,15,00,43,11.60
2016,09,15,00,44,11.60
2016,09,15,00,45,11.60
2016,09,15,00,46,11.60
2016,09,15,00,47,11.60
2016,09,15,00,48,11.60
2016,09,15,00,49,11.60
2016,09,15,00,50,11.50
2016,09,15,00,51,11.40
2016,09,15,00,52,11.40
2016,09,15,00,53,11.40
2016,09,15,00,54,11.40
2016,09,15,00,55,11.40
2016,09,15,00,56,11.40
2016,09,15,00,57,11.40
2016,09,15,00,58,11.40
2016,09,15,00,59,11.40
2016,09,15,01,00,11.40
2016,09,15,01,01,11.40
2016,09,15,01,02,11.40
2016,09,15,01,03,11.40
2016,09,15,01,04,11.40
2016,09,15,01,05,11.40
2016,09,15,01,06,11.40
2016,09,15,01,07,11.40
2016,09,15,01,08,11.40
2016,09,15,01,09,11.40
2016,09,15,01,10,11.30
2016,09,15,01,11,11.30
2016,09,15,01,12,11.30
2016,09,15,01,13,11.20
2016,09,15,01,14,11.20
2016,09,15,01,15,11.10
2016,09,15,01,16,11.10
2016,09,15,01,17,11.10
2016,09,15,01,18,11.10
2016,09,15,01,19,11.10
2016,09,15,01,20,11.00
2016,09,15,01,21,10.90
2016,09,15,01,22,10.90
2016,09,15,01,23,10.90
2016,09,15,01,24,10.90
2016,09,15,01,25,10.90
2016,09,15,01,26,10.90
2016,09,15,01,27,10.90
2016,09,15,01,28,10.90
2016,09,15,01,29,10.90
2016,09,15,01,30,10.90
2016,09,15,01,31,10.90
2016,09,15,01,32,10.90
2016,09,15,01,33,10.90
2016,09,15,01,34,10.90
2016,09,15,01,35,10.90
2016,09,15,01,36,10.90
2016,09,15,01,37,10.90
2016,09,15,01,38,10.80
2016,09,15,01,39,10.80
2016,09,15,01,40,10.80
2016,09,15,01,41,10.80
2016,09,15,01,42,10.80
2016,09,15,01,43,10.80
2016,09,15,01,44,10.70
2016,09,15,01,45,10.70
2016,09,15,01,46,10.70
2016,09,15,01,47,10.70
2016,09,15,01,48,10.70
2016,09,15,01,49,10.60
2016,09,15,01,50,10.60
2016,09,15,01,51,10.60
2016,09,15,01,52,10.60
2016,09,15,01,53,10.60
2016,09,15,01,54,10.60
2016,09,15,01,55,10.60
2016,09,15,01,56,10.60
2016,09,15,01,57,10.50
2016,09,15,01,58,10.40
2016,09,15,01,59,10.40
2016,09,15,02,00,10.40
2016,09,15,02,01,10.40
2016,09,15,02,02,10.40
2016,09,15,02,03,10.30
2016,09,15,02,04,10.30
2016,09,15,02,05,10.30
2016,09,15,02,06,10.20
2016,09,15,02,07,10.20
2016,09,15,02,08,10.20
2016,09,15,02,09,10.10
2016,09,15,02,10,10.10
2016,09,15,02,11,10.10
2016,09,15,02,12,10.10
2016,09,15,02,13,10.10
2016,09,15,02,14,10.10
2016,09,15,02,15,10.10
2016,09,15,02,16,10.00
2016,09,15,02,17,9.90
2016,09,15,02,18,9.90
2016,09,15,02,19,9.90
2016,09,15,02,20,9.90
2016,09,15,02,21,9.90
2016,09,15,02,22,9.90
2016,09,15,02,23,9.90
2016,09,15,02,24,9.90
2016,09,15,02,25,9.90
2016,09,15,02,26,9.90
2016,09,15,02,27,9.90
2016,09,15,02,28,9.90
2016,09,15,02,29,9.90
2016,09,15,02,30,9.90
2016,09,15,02,31,9.90
2016,09,15,02,32,9.90
2016,09,15,02,33,9.90
2016,09,15,02,34,9.90
2016,09,15,02,35,9.90
2016,09,15,02,36,9.90
2016,09,15,02,37,9.90
2016,09,15,02,38,9.90
2016,09,15,02,39,9.90
2016,09,15,02,40,9.90
2016,09,15,02,41,9.90
2016,09,15,02,42,9.90
2016,09,15,02,43,9.90
2016,09,15,02,44,9.90
2016,09,15,02,45,9.90
2016,09,15,02,46,9.90
2016,09,15,02,47,9.80
2016,09,15,02,48,9.80
2016,09,15,02,49,9.80
2016,09,15,02,50,9.80
2016,09,15,02,51,9.80
2016,09,15,02,52,9.80
2016,09,15,02,53,9.80
2016,09,15,02,54,9.70
2016,09,15,02,55,9.70
2016,09,15,02,56,9.70
2016,09,15,02,57,9.70
2016,09,15,02,58,9.70
2016,09,15,02,59,9.70
2016,09,15,03,00,9.70
2016,09,15,03,01,9.70
2016,09,15,03,02,9.70
2016,09,15,03,03,9.70
2016,09,15,03,04,9.60
2016,09,15,03,05,9.60
2016,09,15,03,06,9.60
2016,09,15,03,07,9.50
2016,09,15,03,08,9.50
2016,09,15,03,09,9.60
2016,09,15,03,10,9.60
2016,09,15,03,11,9.60
2016,09,15,03,12,9.50
2016,09,15,03,13,9.50
2016,09,15,03,14,9.50
2016,09,15,03,15,9.50
2016,09,15,03,16,9.50
2016,09,15,03,17,9.50
2016,09,15,03,18,9.40
2016,09,15,03,19,9.40
2016,09,15,03,20,9.40
2016,09,15,03,21,9.40
2016,09,15,03,22,9.40
2016,09,15,03,23,9.30
2016,09,15,03,24,9.30
2016,09,15,03,25,9.30
2016,09,15,03,26,9.30
2016,09,15,03,27,9.30
2016,09,15,03,28,9.30
2016,09,15,03,29,9.30
2016,09,15,03,30,9.30
2016,09,15,03,31,9.30
2016,09,15,03,32,9.30
2016,09,15,03,33,9.30
2016,09,15,03,34,9.30
2016,09,15,03,35,9.30
2016,09,15,03,36,9.30
2016,09,15,03,37,9.30
2016,09,15,03,38,9.30
2016,09,15,03,39,9.30
2016,09,15,03,40,9.20
2016,09,15,03,41,9.20
2016,09,15,03,42,9.20
2016,09,15,03,43,9.20
2016,09,15,03,44,9.20
2016,09,15,03,45,9.20
2016,09,15,03,46,9.20
2016,09,15,03,47,9.20
2016,09,15,03,48,9.20
2016,09,15,03,49,9.20
2016,09,15,03,50,9.20
2016,09,15,03,51,9.10
2016,09,15,03,52,9.10
2016,09,15,03,53,9.10
2016,09,15,03,54,9.10
2016,09,15,03,55,9.20
2016,09,15,03,56,9.20
2016,09,15,03,57,9.20
2016,09,15,03,58,9.20
2016,09,15,03,59,9.20
2016,09,15,04,00,9.20
2016,09,15,04,01,9.20
2016,09,15,04,02,9.20
2016,09,15,04,03,9.20
2016,09,15,04,04,9.20
2016,09,15,04,05,9.20
2016,09,15,04,06,9.20
2016,09,15,04,07,9.20
2016,09,15,04,08,9.20
2016,09,15,04,09,9.20
2016,09,15,04,10,9.20
2016,09,15,04,11,9.20
2016,09,15,04,12,9.20
2016,09,15,04,13,9.20
2016,09,15,04,14,9.20
2016,09,15,04,15,9.20
2016,09,15,04,16,9.20
2016,09,15,04,17,9.20
2016,09,15,04,18,9.20
2016,09,15,04,19,9.20
2016,09,15,04,20,9.20
2016,09,15,04,21,9.20
2016,09,15,04,22,9.20
2016,09,15,04,23,9.20
2016,09,15,04,24,9.20
2016,09,15,04,25,9.20
2016,09,15,04,26,9.20
2016,09,15,04,27,9.10
2016,09,15,04,28,9.10
2016,09,15,04,29,9.10
2016,09,15,04,30,9.00
2016,09,15,04,31,9.00
2016,09,15,04,32,9.00
2016,09,15,04,33,9.00
2016,09,15,04,34,8.90
2016,09,15,04,35,8.90
2016,09,15,04,36,8.90
2016,09,15,04,37,8.80
2016,09,15,04,38,8.80
2016,09,15,04,39,8.80
2016,09,15,04,40,8.70
2016,09,15,04,41,8.70
2016,09,15,04,42,8.70
2016,09,15,04,43,8.70
2016,09,15,04,44,8.70
2016,09,15,04,45,8.70
2016,09,15,04,46,8.70
2016,09,15,04,47,8.80
2016,09,15,04,48,8.80
2016,09,15,04,49,8.80
2016,09,15,04,50,8.80
2016,09,15,04,51,8.80
2016,09,15,04,52,8.80
2016,09,15,04,53,8.80
2016,09,15,04,54,8.80
2016,09,15,04,55,8.80
2016,09,15,04,56,8.70
2016,09,15,04,57,8.70
2016,09,15,04,58,8.70
2016,09,15,04,59,8.70
2016,09,15,05,00,8.70
2016,09,15,05,01,8.70
2016,09,15,05,02,8.70
2016,09,15,05,03,8.70
2016,09,15,05,04,8.70
2016,09,15,05,05,8.70
2016,09,15,05,06,8.70
2016,09,15,05,07,8.70
2016,09,15,05,08,8.70
2016,09,15,05,09,8.70
2016,09,15,05,10,8.70
2016,09,15,05,11,8.70
2016,09,15,05,12,8.70
2016,09,15,05,13,8.70
2016,09,15,05,14,8.70
2016,09,15,05,15,8.70
2016,09,15,05,16,8.70
2016,09,15,05,17,8.70
2016,09,15,05,18,8.60
2016,09,15,05,19,8.60
2016,09,15,05,20,8.60
2016,09,15,05,21,8.60
2016,09,15,05,22,8.60
2016,09,15,05,23,8.60
2016,09,15,05,24,8.60
2016,09,15,05,25,8.60
2016,09,15,05,26,8.60
2016,09,15,05,27,8.60
2016,09,15,05,28,8.50
2016,09,15,05,29,8.50
2016,09,15,05,30,8.50
2016,09,15,05,31,8.50
2016,09,15,05,32,8.50
2016,09,15,05,33,8.40
2016,09,15,05,34,8.40
2016,09,15,05,35,8.40
2016,09,15,05,36,8.30
2016,09,15,05,37,8.30
2016,09,15,05,38,8.30
2016,09,15,05,39,8.30
2016,09,15,05,40,8.20
2016,09,15,05,41,8.20
2016,09,15,05,42,8.20
2016,09,15,05,43,8.20
2016,09,15,05,44,8.20
2016,09,15,05,45,8.20
2016,09,15,05,46,8.20
2016,09,15,05,47,8.20
2016,09,15,05,48,8.30
2016,09,15,05,49,8.30
2016,09,15,05,50,8.30
2016,09,15,05,51,8.30
2016,09,15,05,52,8.30
2016,09,15,05,53,8.30
2016,09,15,05,54,8.30
2016,09,15,05,55,8.30
2016,09,15,05,56,8.30
2016,09,15,05,57,8.30
2016,09,15,05,58,8.30
2016,09,15,05,59,8.30
2016,09,15,06,00,8.30
2016,09,15,06,01,8.20
2016,09,15,06,02,8.20
2016,09,15,06,03,8.20
2016,09,15,06,04,8.20
2016,09,15,06,05,8.20
2016,09,15,06,06,8.20
2016,09,15,06,07,8.20
2016,09,15,06,08,8.20
2016,09,15,06,09,8.20
2016,09,15,06,10,8.20
2016,09,15,06,11,8.20
2016,09,15,06,12,8.20
2016,09,15,06,13,8.20
2016,09,15,06,14,8.20
2016,09,15,06,15,8.20
2016,09,15,06,16,8.10
2016,09,15,06,17,8.10
2016,09,15,06,18,8.10
2016,09,15,06,19,8.10
2016,09,15,06,20,8.10
2016,09,15,06,21,8.10
2016,09,15,06,22,8.10
2016,09,15,06,23,8.10
2016,09,15,06,24,8.10
2016,09,15,06,25,8.10
2016,09,15,06,26,8.10
2016,09,15,06,27,8.10
2016,09,15,06,28,8.00
2016,09,15,06,29,8.00
2016,09,15,06,30,8.00
2016,09,15,06,31,8.00
2016,09,15,06,32,8.00
2016,09,15,06,33,8.00
2016,09,15,06,34,8.00
2016,09,15,06,35,8.00
2016,09,15,06,36,8.00
2016,09,15,06,37,8.10
2016,09,15,06,38,8.10
2016,09,15,06,39,8.10
2016,09,15,06,40,8.10
2016,09,15,06,41,8.10
2016,09,15,06,42,8.20
2016,09,15,06,43,8.20
2016,09,15,06,44,8.20
2016,09,15,06,45,8.20
2016,09,15,06,46,8.20
2016,09,15,06,47,8.20
2016,09,15,06,48,8.20
2016,09,15,06,49,8.20
2016,09,15,06,50,8.20
2016,09,15,06,51,8.20
2016,09,15,06,52,8.20
2016,09,15,06,53,8.20
2016,09,15,06,54,8.20
2016,09,15,06,55,8.20
2016,09,15,06,56,8.20
2016,09,15,06,57,8.10
2016,09,15,06,58,8.10
2016,09,15,06,59,8.10
2016,09,15,07,00,8.10
2016,09,15,07,01,8.10
2016,09,15,07,02,8.10
2016,09,15,07,03,8.10
2016,09,15,07,04,8.10
2016,09,15,07,05,8.10
2016,09,15,07,06,8.10
2016,09,15,07,07,8.10
2016,09,15,07,08,8.10
2016,09,15,07,09,8.10
2016,09,15,07,10,8.20
2016,09,15,07,11,8.20
2016,09,15,07,12,8.20
2016,09,15,07,13,8.20
2016,09,15,07,14,8.10
2016,09,15,07,15,8.10
2016,09,15,07,16,8.10
2016,09,15,07,17,8.10
2016,09,15,07,18,8.10
2016,09,15,07,19,8.10
2016,09,15,07,20,8.10
2016,09,15,07,21,8.10
2016,09,15,07,22,8.10
2016,09,15,07,23,8.10
2016,09,15,07,24,8.10
2016,09,15,07,25,8.10
2016,09,15,07,26,8.10
2016,09,15,07,27,8.10
2016,09,15,07,28,8.10
2016,09,15,07,29,8.10
2016,09,15,07,30,8.20
2016,09,15,07,31,8.20
2016,09,15,07,32,8.20
2016,09,15,07,33,8.20
2016,09,15,07,34,8.30
2016,09,15,07,35,8.30
2016,09,15,07,36,8.40
2016,09,15,07,37,8.40
2016,09,15,07,38,8.50
2016,09,15,07,39,8.50
2016,09,15,07,40,8.60
2016,09,15,07,41,8.70
2016,09,15,07,42,8.70
2016,09,15,07,43,8.80
2016,09,15,07,44,8.80
2016,09,15,07,45,8.90
2016,09,15,07,46,9.00
2016,09,15,07,47,9.00
2016,09,15,07,48,9.10
2016,09,15,07,49,9.10
2016,09,15,07,50,9.20
2016,09,15,07,51,9.20
2016,09,15,07,52,9.20
2016,09,15,07,53,9.30
2016,09,15,07,54,9.40
2016,09,15,07,55,9.40
2016,09,15,07,56,9.50
2016,09,15,07,57,9.50
2016,09,15,07,58,9.60
2016,09,15,07,59,9.70
2016,09,15,08,00,9.70
2016,09,15,08,01,9.80
2016,09,15,08,02,9.80
2016,09,15,08,03,9.90
2016,09,15,08,04,9.90
2016,09,15,08,05,10.00
2016,09,15,08,06,10.10
2016,09,15,08,07,10.10
2016,09,15,08,08,10.20
2016,09,15,08,09,10.30
2016,09,15,08,10,10.30
2016,09,15,08,11,10.40
2016,09,15,08,12,10.40
2016,09,15,08,13,10.60
2016,09,15,08,14,10.60
2016,09,15,08,15,10.60
2016,09,15,08,16,10.70
2016,09,15,08,17,10.80
2016,09,15,08,18,10.90
2016,09,15,08,19,11.00
2016,09,15,08,20,11.10
2016,09,15,08,21,11.20
2016,09,15,08,22,11.30
2016,09,15,08,23,11.40
2016,09,15,08,24,11.50
2016,09,15,08,25,11.60
2016,09,15,08,26,11.70
2016,09,15,08,27,11.80
2016,09,15,08,28,11.80
2016,09,15,08,29,11.90
2016,09,15,08,30,11.90
2016,09,15,08,31,12.00
2016,09,15,08,32,12.00
2016,09,15,08,33,12.10
2016,09,15,08,34,12.10
2016,09,15,08,35,12.20
2016,09,15,08,36,12.20
2016,09,15,08,37,12.30
2016,09,15,08,38,12.30
2016,09,15,08,39,12.30
2016,09,15,08,40,12.40
2016,09,15,08,41,12.50
2016,09,15,08,42,12.50
2016,09,15,08,43,12.60
2016,09,15,08,44,12.70
2016,09,15,08,45,12.80
2016,09,15,08,46,12.90
2016,09,15,08,47,12.90
2016,09,15,08,48,13.00
2016,09,15,08,49,13.10
2016,09,15,08,50,13.20
2016,09,15,08,51,13.30
2016,09,15,08,52,13.30
2016,09,15,08,53,13.40
2016,09,15,08,54,13.50
2016,09,15,08,55,13.50
2016,09,15,08,56,13.60
2016,09,15,08,57,13.70
2016,09,15,08,58,13.70
2016,09,15,08,59,13.70
2016,09,15,09,00,13.70
2016,09,15,09,01,13.70
2016,09,15,09,02,13.80
2016,09,15,09,03,13.80
2016,09,15,09,04,13.90
2016,09,15,09,05,13.90
2016,09,15,09,06,13.90
2016,09,15,09,07,13.90
2016,09,15,09,08,13.90
2016,09,15,09,09,14.00
2016,09,15,09,10,14.00
2016,09,15,09,11,14.00
2016,09,15,09,12,14.10
2016,09,15,09,13,14.10
2016,09,15,09,14,14.20
2016,09,15,09,15,14.20
2016,09,15,09,16,14.30
2016,09,15,09,17,14.40
2016,09,15,09,18,14.40
2016,09,15,09,19,14.40
2016,09,15,09,20,14.40
2016,09,15,09,21,14.50
2016,09,15,09,22,14.50
2016,09,15,09,23,14.60
2016,09,15,09,24,14.60
2016,09,15,09,25,14.60
2016,09,15,09,26,14.70
2016,09,15,09,27,14.70
2016,09,15,09,28,14.70
2016,09,15,09,29,14.70
2016,09,15,09,30,14.80
2016,09,15,09,31,14.80
2016,09,15,09,32,14.80
2016,09,15,09,33,14.90
2016,09,15,09,34,14.90
2016,09,15,09,35,14.90
2016,09,15,09,36,14.90
2016,09,15,09,37,14.90
2016,09,15,09,38,15.00
2016,09,15,09,39,15.00
2016,09,15,09,40,15.00
2016,09,15,09,41,15.00
2016,09,15,09,42,15.00
2016,09,15,09,43,15.10
2016,09,15,09,44,15.10
2016,09,15,09,45,15.20
2016,09,15,09,46,15.20
2016,09,15,09,47,15.30
2016,09,15,09,48,15.30
2016,09,15,09,49,15.40
2016,09,15,09,50,15.40
2016,09,15,09,51,15.40
2016,09,15,09,52,15.40
2016,09,15,09,53,15.40
2016,09,15,09,54,15.40
2016,09,15,09,55,15.40
2016,09,15,09,56,15.50
2016,09,15,09,57,15.50
2016,09,15,09,58,15.60
2016,09,15,09,59,15.50
2016,09,15,10,00,15.60
2016,09,15,10,01,15.60
2016,09,15,10,02,15.60
2016,09,15,10,03,15.50
2016,09,15,10,04,15.50
2016,09,15,10,05,15.50
2016,09,15,10,06,15.50
2016,09,15,10,07,15.50
2016,09,15,10,08,15.60
2016,09,15,10,09,15.60
2016,09,15,10,10,15.70
2016,09,15,10,11,15.80
2016,09,15,10,12,15.80
2016,09,15,10,13,15.80
2016,09,15,10,14,15.80
2016,09,15,10,15,15.80
2016,09,15,10,16,15.80
2016,09,15,10,17,15.90
2016,09,15,10,18,16.00
2016,09,15,10,19,16.10
2016,09,15,10,20,16.10
2016,09,15,10,21,16.10
2016,09,15,10,22,16.00
2016,09,15,10,23,15.90
2016,09,15,10,24,15.80
2016,09,15,10,25,15.80
2016,09,15,10,26,15.80
2016,09,15,10,27,15.80
2016,09,15,10,28,15.80
2016,09,15,10,29,15.80
2016,09,15,10,30,15.90
2016,09,15,10,31,16.00
2016,09,15,10,32,16.10
2016,09,15,10,33,16.10
2016,09,15,10,34,16.10
2016,09,15,10,35,16.10
2016,09,15,10,36,16.10
2016,09,15,10,37,16.10
2016,09,15,10,38,16.00
2016,09,15,10,39,16.00
2016,09,15,10,40,16.10
2016,09,15,10,41,16.30
2016,09,15,10,42,16.40
2016,09,15,10,43,16.40
2016,09,15,10,44,16.40
2016,09,15,10,45,16.50
2016,09,15,10,46,16.60
2016,09,15,10,47,16.60
2016,09,15,10,48,16.60
2016,09,15,10,49,16.70
2016,09,15,10,50,16.80
2016,09,15,10,51,16.90
2016,09,15,10,52,17.00
2016,09,15,10,53,17.10
2016,09,15,10,54,17.20
2016,09,15,10,55,17.20
2016,09,15,10,56,17.20
2016,09,15,10,57,17.20
2016,09,15,10,58,17.20
2016,09,15,10,59,17.00
2016,09,15,11,00,16.90
2016,09,15,11,01,16.80
2016,09,15,11,02,16.70
2016,09,15,11,03,16.70
2016,09,15,11,04,16.70
2016,09,15,11,05,16.60
2016,09,15,11,06,16.60
2016,09,15,11,07,16.60
2016,09,15,11,08,16.60
2016,09,15,11,09,16.50
2016,09,15,11,10,16.50
2016,09,15,11,11,16.60
2016,09,15,11,12,16.80
2016,09,15,11,13,17.00
2016,09,15,11,14,17.10
2016,09,15,11,15,17.30
2016,09,15,11,16,17.30
2016,09,15,11,17,17.40
2016,09,15,11,18,17.40
2016,09,15,11,19,17.50
2016,09,15,11,20,17.60
2016,09,15,11,21,17.50
2016,09,15,11,22,17.40
2016,09,15,11,23,17.30
2016,09,15,11,24,17.40
2016,09,15,11,25,17.50
2016,09,15,11,26,17.50
2016,09,15,11,27,17.60
2016,09,15,11,28,17.40
2016,09,15,11,29,17.40
2016,09,15,11,30,17.50
2016,09,15,11,31,17.50
2016,09,15,11,32,17.50
2016,09,15,11,33,17.60
2016,09,15,11,34,17.70
2016,09,15,11,35,17.60
2016,09,15,11,36,17.60
2016,09,15,11,37,17.60
2016,09,15,11,38,17.60
2016,09,15,11,39,17.70
2016,09,15,11,40,17.60
2016,09,15,11,41,17.50
2016,09,15,11,42,17.50
2016,09,15,11,43,17.40
2016,09,15,11,44,17.30
2016,09,15,11,45,17.20
2016,09,15,11,46,17.10
2016,09,15,11,47,17.00
2016,09,15,11,48,17.00
2016,09,15,11,49,17.00
2016,09,15,11,50,17.00
2016,09,15,11,51,17.00
2016,09,15,11,52,17.10
2016,09,15,11,53,17.20
2016,09,15,11,54,17.10
2016,09,15,11,55,17.10
2016,09,15,11,56,17.20
2016,09,15,11,57,17.20
2016,09,15,11,58,17.10
2016,09,15,11,59,17.10
2016,09,15,12,00,17.20
2016,09,15,12,01,17.30
2016,09,15,12,02,17.30
2016,09,15,12,03,17.30
2016,09,15,12,04,17.30
2016,09,15,12,05,17.30
2016,09,15,12,06,17.30
2016,09,15,12,07,17.20
2016,09,15,12,08,17.20
2016,09,15,12,09,17.30
2016,09,15,12,10,17.30
2016,09,15,12,11,17.30
2016,09,15,12,12,17.20
2016,09,15,12,13,17.00
2016,09,15,12,14,17.10
2016,09,15,12,15,17.20
2016,09,15,12,16,17.30
2016,09,15,12,17,17.30
2016,09,15,12,18,17.40
2016,09,15,12,19,17.50
2016,09,15,12,20,17.50
2016,09,15,12,21,17.30
2016,09,15,12,22,17.30
2016,09,15,12,23,17.10
2016,09,15,12,24,16.90
2016,09,15,12,25,16.80
2016,09,15,12,26,16.70
2016,09,15,12,27,16.80
2016,09,15,12,28,17.00
2016,09,15,12,29,17.00
2016,09,15,12,30,16.90
2016,09,15,12,31,16.90
2016,09,15,12,32,17.00
2016,09,15,12,33,17.00
2016,09,15,12,34,17.10
2016,09,15,12,35,17.00
2016,09,15,12,36,16.90
2016,09,15,12,37,16.90
2016,09,15,12,38,17.00
2016,09,15,12,39,16.90
2016,09,15,12,40,16.90
2016,09,15,12,41,16.90
2016,09,15,12,42,17.10
2016,09,15,12,43,17.20
2016,09,15,12,44,17.30
2016,09,15,12,45,17.30
2016,09,15,12,46,17.30
2016,09,15,12,47,17.30
2016,09,15,12,48,17.30
2016,09,15,12,49,17.30
2016,09,15,12,50,17.30
2016,09,15,12,51,17.30
2016,09,15,12,52,17.30
2016,09,15,12,53,17.40
2016,09,15,12,54,17.40
2016,09,15,12,55,17.50
2016,09,15,12,56,17.70
2016,09,15,12,57,17.70
2016,09,15,12,58,17.60
2016,09,15,12,59,17.50
2016,09,15,13,00,17.60
2016,09,15,13,01,17.60
2016,09,15,13,02,17.40
2016,09,15,13,03,17.30
2016,09,15,13,04,17.30
2016,09,15,13,05,17.30
2016,09,15,13,06,17.40
2016,09,15,13,07,17.40
2016,09,15,13,08,17.40
2016,09,15,13,09,17.50
2016,09,15,13,10,17.50
2016,09,15,13,11,17.40
2016,09,15,13,12,17.40
2016,09,15,13,13,17.40
2016,09,15,13,14,17.50
2016,09,15,13,15,17.60
2016,09,15,13,16,17.70
2016,09,15,13,17,17.90
2016,09,15,13,18,17.90
2016,09,15,13,19,17.90
2016,09,15,13,20,17.90
2016,09,15,13,21,17.90
2016,09,15,13,22,17.90
2016,09,15,13,23,18.00
2016,09,15,13,24,18.10
2016,09,15,13,25,18.20
2016,09,15,13,26,18.20
2016,09,15,13,27,18.30
2016,09,15,13,28,18.50
2016,09,15,13,29,18.60
2016,09,15,13,30,18.60
2016,09,15,13,31,18.50
2016,09,15,13,32,18.20
2016,09,15,13,33,17.90
2016,09,15,13,34,17.80
2016,09,15,13,35,17.80
2016,09,15,13,36,17.80
2016,09,15,13,37,18.00
2016,09,15,13,38,18.10
2016,09,15,13,39,18.20
2016,09,15,13,40,18.20
2016,09,15,13,41,18.20
2016,09,15,13,42,18.30
2016,09,15,13,43,18.40
2016,09,15,13,44,18.40
2016,09,15,13,45,18.40
2016,09,15,13,46,18.50
2016,09,15,13,47,18.60
2016,09,15,13,48,18.70
2016,09,15,13,49,18.70
2016,09,15,13,50,18.80
2016,09,15,13,51,18.90
2016,09,15,13,52,19.00
2016,09,15,13,53,19.10
2016,09,15,13,54,19.20
2016,09,15,13,55,19.20
2016,09,15,13,56,19.10
2016,09,15,13,57,18.90
2016,09,15,13,58,18.90
2016,09,15,13,59,18.70
2016,09,15,14,00,18.60
2016,09,15,14,01,18.70
2016,09,15,14,02,18.70
2016,09,15,14,03,18.80
2016,09,15,14,04,18.80
2016,09,15,14,05,18.90
2016,09,15,14,06,18.90
2016,09,15,14,07,18.90
2016,09,15,14,08,19.00
2016,09,15,14,09,18.90
2016,09,15,14,10,18.80
2016,09,15,14,11,18.80
2016,09,15,14,12,18.80
2016,09,15,14,13,18.90
2016,09,15,14,14,19.00
2016,09,15,14,15,19.10
2016,09,15,14,16,19.10
2016,09,15,14,17,19.00
2016,09,15,14,18,19.00
2016,09,15,14,19,19.10
2016,09,15,14,20,19.10
2016,09,15,14,21,19.10
2016,09,15,14,22,19.10
2016,09,15,14,23,19.20
2016,09,15,14,24,19.30
2016,09,15,14,25,19.30
2016,09,15,14,26,19.30
2016,09,15,14,27,19.40
2016,09,15,14,28,19.40
2016,09,15,14,29,19.40
2016,09,15,14,30,19.40
2016,09,15,14,31,19.20
2016,09,15,14,32,18.90
2016,09,15,14,33,18.80
2016,09,15,14,34,18.80
2016,09,15,14,35,18.80
2016,09,15,14,36,18.80
2016,09,15,14,37,18.90
2016,09,15,14,38,18.80
2016,09,15,14,39,18.80
2016,09,15,14,40,18.90
2016,09,15,14,41,18.80
2016,09,15,14,42,18.60
2016,09,15,14,43,18.60
2016,09,15,14,44,18.60
2016,09,15,14,45,18.50
2016,09,15,14,46,18.60
2016,09,15,14,47,18.70
2016,09,15,14,48,18.90
2016,09,15,14,49,18.90
2016,09,15,14,50,19.00
2016,09,15,14,51,19.10
2016,09,15,14,52,19.20
2016,09,15,14,53,19.10
2016,09,15,14,54,19.10
2016,09,15,14,55,18.90
2016,09,15,14,56,18.90
2016,09,15,14,57,18.90
2016,09,15,14,58,19.10
2016,09,15,14,59,19.10
2016,09,15,15,00,19.10
2016,09,15,15,01,19.10
2016,09,15,15,02,19.10
2016,09,15,15,03,19.30
2016,09,15,15,04,19.50
2016,09,15,15,05,19.60
2016,09,15,15,06,19.70
2016,09,15,15,07,19.70
2016,09,15,15,08,19.70
2016,09,15,15,09,19.70
2016,09,15,15,10,19.80
2016,09,15,15,11,19.80
2016,09,15,15,12,19.60
2016,09,15,15,13,19.50
2016,09,15,15,14,19.50
2016,09,15,15,15,19.50
2016,09,15,15,16,19.50
2016,09,15,15,17,19.30
2016,09,15,15,18,19.10
2016,09,15,15,19,19.10
2016,09,15,15,20,19.10
2016,09,15,15,21,19.10
2016,09,15,15,22,19.10
2016,09,15,15,23,19.20
2016,09,15,15,24,19.30
2016,09,15,15,25,19.40
2016,09,15,15,26,19.40
2016,09,15,15,27,19.40
2016,09,15,15,28,19.50
2016,09,15,15,29,19.40
2016,09,15,15,30,19.30
2016,09,15,15,31,19.20
2016,09,15,15,32,19.10
2016,09,15,15,33,19.10
2016,09,15,15,34,19.00
2016,09,15,15,35,19.00
2016,09,15,15,36,19.10
2016,09,15,15,37,19.10
2016,09,15,15,38,19.20
2016,09,15,15,39,19.30
2016,09,15,15,40,19.40
2016,09,15,15,41,19.30
2016,09,15,15,42,19.20
2016,09,15,15,43,19.20
2016,09,15,15,44,19.10
2016,09,15,15,45,19.10
2016,09,15,15,46,19.10
2016,09,15,15,47,19.10
2016,09,15,15,48,19.10
2016,09,15,15,49,19.10
2016,09,15,15,50,19.10
2016,09,15,15,51,19.10
2016,09,15,15,52,19.10
2016,09,15,15,53,19.10
2016,09,15,15,54,19.10
2016,09,15,15,55,19.10
2016,09,15,15,56,19.10
2016,09,15,15,57,19.20
2016,09,15,15,58,19.20
2016,09,15,15,59,19.10
2016,09,15,16,00,19.10
2016,09,15,16,01,19.10
2016,09,15,16,02,19.10
2016,09,15,16,03,19.10
2016,09,15,16,04,19.30
2016,09,15,16,05,19.30
2016,09,15,16,06,19.30
2016,09,15,16,07,19.40
2016,09,15,16,08,19.40
2016,09,15,16,09,19.40
2016,09,15,16,10,19.50
2016,09,15,16,11,19.50
2016,09,15,16,12,19.50
2016,09,15,16,13,19.40
2016,09,15,16,14,19.40
2016,09,15,16,15,19.30
2016,09,15,16,16,19.30
2016,09,15,16,17,19.30
2016,09,15,16,18,19.30
2016,09,15,16,19,19.20
2016,09,15,16,20,19.20
2016,09,15,16,21,19.10
2016,09,15,16,22,19.20
2016,09,15,16,23,19.30
2016,09,15,16,24,19.40
2016,09,15,16,25,19.30
2016,09,15,16,26,19.30
2016,09,15,16,27,19.40
2016,09,15,16,28,19.30
2016,09,15,16,29,19.40
2016,09,15,16,30,19.40
2016,09,15,16,31,19.40
2016,09,15,16,32,19.40
2016,09,15,16,33,19.50
2016,09,15,16,34,19.50
2016,09,15,16,35,19.60
2016,09,15,16,36,19.60
2016,09,15,16,37,19.60
2016,09,15,16,38,19.60
2016,09,15,16,39,19.40
2016,09,15,16,40,19.40
2016,09,15,16,41,19.40
2016,09,15,16,42,19.50
2016,09,15,16,43,19.50
2016,09,15,16,44,19.40
2016,09,15,16,45,19.30
2016,09,15,16,46,19.30
2016,09,15,16,47,19.40
2016,09,15,16,48,19.50
2016,09,15,16,49,19.60
2016,09,15,16,50,19.70
2016,09,15,16,51,19.70
2016,09,15,16,52,19.80
2016,09,15,16,53,19.90
2016,09,15,16,54,20.00
2016,09,15,16,55,20.10
2016,09,15,16,56,20.10
2016,09,15,16,57,20.00
2016,09,15,16,58,20.00
2016,09,15,16,59,20.10
2016,09,15,17,00,20.20
2016,09,15,17,01,20.20
2016,09,15,17,02,20.20
2016,09,15,17,03,20.20
2016,09,15,17,04,20.00
2016,09,15,17,05,19.90
2016,09,15,17,06,19.90
2016,09,15,17,07,19.90
2016,09,15,17,08,19.90
2016,09,15,17,09,19.90
2016,09,15,17,10,20.00
2016,09,15,17,11,20.10
2016,09,15,17,12,20.10
2016,09,15,17,13,20.20
2016,09,15,17,14,20.20
2016,09,15,17,15,20.20
2016,09,15,17,16,20.30
2016,09,15,17,17,20.30
2016,09,15,17,18,20.40
2016,09,15,17,19,20.40
2016,09,15,17,20,20.40
2016,09,15,17,21,20.50
2016,09,15,17,22,20.50
2016,09,15,17,23,20.60
2016,09,15,17,24,20.60
2016,09,15,17,25,20.70
2016,09,15,17,26,20.60
2016,09,15,17,27,20.60
2016,09,15,17,28,20.60
2016,09,15,17,29,20.60
2016,09,15,17,30,20.60
2016,09,15,17,31,20.50
2016,09,15,17,32,20.50
2016,09,15,17,33,20.50
2016,09,15,17,34,20.50